Columbus, OH

10:03 AM EST on February 26, 2017 (GMT -0500)
Rickenbacker International

Weather History for KLCK - February, 2014

Change the Weather History Date:

Wednesday, February 5, 2014

  Actual Average Record
Temperature  
Mean Temperature 28 °F -  
Max Temperature 32 °F 39 °F 62 °F (2008)
Min Temperature 24 °F 24 °F 1 °F (2007)
Degree Days  
Heating Degree Days 37    
Moisture  
Dew Point 24 °F    
Average Humidity 80    
Maximum Humidity 89    
Minimum Humidity 71    
Precipitation  
Precipitation 0.00 in - - ()
Sea Level Pressure  
Sea Level Pressure 29.96 in    
Wind  
Wind Speed 11 mph (NNW)    
Max Wind Speed 22 mph    
Max Gust Speed 25 mph    
Visibility 6 miles    
Events Snow    
Averages and records for this station are not official NWS values.
T = Trace of Precipitation, MM = Missing Value Source: NWS Daily Summary

Daily Weather History Graph

Daily Weather History Graph

Search for Another Location

Airport or City:

Trip Planner

Search our weather history database for the weather conditions in past years. The results will help you decide how hot, cold, wet, or windy it might be!

Date:

Astronomy

Feb. 05, 2014 Rise Set
Actual Time 7:35 AM EST 5:56 PM EST
Civil Twilight 7:07 AM EST 6:24 PM EST
Nautical Twilight 6:35 AM EST 6:56 PM EST
Astronomical Twilight 6:03 AM EST 7:28 PM EST
Moon 10:50 AM EST (2/5) No Moon Set
Length of Visible Light 11h 16m
Length of Day
10h 20m
Waxing Crescent, 39% of the Moon is Illuminated
Feb 5
Waxing Crescent
Feb 6
First Quarter
Feb 14
Full
Feb 22
Last Quarter
Mar 1
New

Hourly Weather History & Observations

Time (EST) Temp. Windchill Dew Point Humidity Pressure Visibility Wind Dir Wind Speed Gust Speed Precip Events Conditions
12:15 AM 29.3 °F 19.6 °F 25.2 °F 85% 29.94 in 2.5 mi NE 11.5 mph - N/A Snow Light Snow
12:35 AM 30.0 °F 20.5 °F 25.9 °F 85% 29.92 in 2.5 mi NE 11.5 mph - N/A Snow Light Snow
12:55 AM 30.9 °F 18.1 °F 27.0 °F 85% 29.86 in 4.0 mi ENE 21.9 mph 25.3 mph N/A Snow Light Snow
1:15 AM 31.5 °F 19.8 °F 27.1 °F 84% 29.87 in 5.0 mi ENE 18.4 mph 24.2 mph N/A   Overcast
1:35 AM 31.6 °F 23.1 °F 27.1 °F 83% 29.86 in 5.0 mi East 10.4 mph 16.1 mph N/A   Overcast
1:55 AM 32.0 °F 24.8 °F 27.5 °F 83% 29.84 in 5.0 mi ENE 8.1 mph - N/A   Overcast
2:15 AM 32.0 °F 22.5 °F 27.9 °F 85% 29.81 in 5.0 mi East 12.7 mph - N/A   Overcast
2:35 AM 32.2 °F 23.2 °F 28.2 °F 85% 29.79 in 5.0 mi East 11.5 mph 16.1 mph N/A   Overcast
2:55 AM 32.4 °F 24.0 °F 28.4 °F 85% 29.80 in 7.0 mi NE 10.4 mph - N/A   Overcast
3:15 AM 32.2 °F 24.4 °F 28.4 °F 86% 29.79 in 10.0 mi NE 9.2 mph - N/A   Overcast
3:35 AM 32.0 °F 22.5 °F 28.2 °F 86% 29.75 in 10.0 mi NE 12.7 mph - N/A   Overcast
3:55 AM 32.0 °F 23.0 °F 28.0 °F 85% 29.74 in 10.0 mi ENE 11.5 mph - N/A   Overcast
4:15 AM 32.0 °F 23.6 °F 27.9 °F 85% 29.71 in 10.0 mi ENE 10.4 mph - N/A   Overcast
4:35 AM 32.0 °F 23.6 °F 27.9 °F 85% 29.71 in 10.0 mi ENE 10.4 mph - N/A   Overcast
4:55 AM 32.0 °F 23.6 °F 28.0 °F 85% 29.68 in 10.0 mi ENE 10.4 mph - N/A   Overcast
5:15 AM 32.0 °F 24.2 °F 28.2 °F 86% 29.67 in 10.0 mi ENE 9.2 mph - N/A   Overcast
5:35 AM 32.0 °F 24.2 °F 28.4 °F 87% 29.65 in 10.0 mi ENE 9.2 mph - N/A   Overcast
5:55 AM 32.0 °F 27.5 °F 28.6 °F 87% 29.68 in 4.0 mi NW 4.6 mph - N/A   Overcast
6:15 AM 32.0 °F 27.5 °F 28.9 °F 88% 29.70 in 4.0 mi NW 4.6 mph - N/A   Overcast
6:35 AM 32.0 °F 27.5 °F 28.9 °F 88% 29.68 in 2.5 mi NNW 4.6 mph - N/A   Overcast
6:55 AM 32.0 °F 26.4 °F 28.8 °F 88% 29.68 in 4.0 mi NNW 5.8 mph - N/A   Overcast
7:15 AM 32.0 °F 28.7 °F 28.6 °F 87% 29.69 in 7.0 mi NNW 3.5 mph - N/A   Overcast
7:35 AM 32.0 °F 26.4 °F 28.8 °F 88% 29.70 in 5.0 mi WNW 5.8 mph - N/A   Overcast
7:55 AM 32.0 °F 26.4 °F 28.9 °F 88% 29.71 in 1.8 mi WNW 5.8 mph - N/A Snow Light Snow
8:15 AM 32.0 °F 26.4 °F 29.1 °F 89% 29.72 in 1.8 mi WNW 5.8 mph - N/A   Overcast
8:35 AM 32.0 °F 24.8 °F 29.1 °F 89% 29.73 in 1.8 mi WNW 8.1 mph - N/A   Overcast
8:55 AM 32.0 °F 25.6 °F 28.6 °F 87% 29.74 in 2.5 mi WNW 6.9 mph - N/A   Overcast
9:15 AM 32.0 °F 23.6 °F 28.4 °F 87% 29.76 in 5.0 mi WNW 10.4 mph - N/A   Overcast
9:35 AM 31.5 °F 22.3 °F 27.7 °F 86% 29.77 in 5.0 mi WNW 11.5 mph - N/A   Overcast
9:55 AM 30.7 °F 20.9 °F 26.4 °F 84% 29.79 in 7.0 mi WNW 12.7 mph - N/A   Overcast
10:15 AM 30.2 °F 20.8 °F 25.2 °F 82% 29.81 in 7.0 mi WNW 11.5 mph - N/A   Overcast
10:35 AM 29.7 °F 19.1 °F 23.9 °F 79% 29.83 in 7.0 mi WNW 13.8 mph - N/A   Overcast
10:55 AM 29.3 °F 19.6 °F 23.4 °F 78% 29.85 in 5.0 mi WNW 11.5 mph - N/A   Haze
11:15 AM 29.3 °F 19.1 °F 23.0 °F 77% 29.87 in 7.0 mi West 12.7 mph - N/A   Overcast
11:35 AM 29.1 °F 17.5 °F 23.0 °F 78% 29.88 in 5.0 mi WNW 16.1 mph - N/A   Haze
11:55 AM 28.9 °F 18.2 °F 22.6 °F 77% 29.90 in 4.0 mi WNW 13.8 mph - N/A   Haze
12:15 PM 28.4 °F 16.2 °F 22.3 °F 78% 29.91 in 3.0 mi West 17.3 mph 20.7 mph N/A   Haze
12:35 PM 27.9 °F 15.9 °F 21.9 °F 78% 29.91 in 2.5 mi WNW 16.1 mph 19.6 mph N/A Snow Light Snow
12:55 PM 27.5 °F 15.4 °F 21.4 °F 78% 29.93 in 3.0 mi WNW 16.1 mph 20.7 mph N/A Snow Light Snow
1:15 PM 27.5 °F 16.3 °F 21.0 °F 77% 29.94 in 5.0 mi NW 13.8 mph 19.6 mph N/A   Haze
1:35 PM 27.5 °F 15.9 °F 20.8 °F 76% 29.95 in 4.0 mi NW 15.0 mph - N/A   Haze
1:55 PM 27.5 °F 15.9 °F 20.5 °F 75% 29.97 in 3.0 mi NW 15.0 mph - N/A   Haze
2:15 PM 27.5 °F 16.8 °F 20.8 °F 76% 29.98 in 2.0 mi NW 12.7 mph 18.4 mph N/A Snow Light Snow
2:35 PM 27.9 °F 16.8 °F 21.2 °F 76% 30.00 in 7.0 mi NW 13.8 mph 17.3 mph N/A   Overcast
2:55 PM 28.0 °F 16.1 °F 20.7 °F 74% 30.01 in 7.0 mi NW 16.1 mph - N/A   Overcast
3:15 PM 27.5 °F 16.3 °F 19.9 °F 73% 30.03 in 10.0 mi NNW 13.8 mph 18.4 mph N/A   Overcast
3:35 PM 27.5 °F 16.8 °F 19.6 °F 72% 30.05 in 7.0 mi NW 12.7 mph - N/A   Overcast
3:55 PM 27.5 °F 18.0 °F 19.4 °F 72% 30.07 in 10.0 mi NW 10.4 mph - N/A   Overcast
4:15 PM 27.5 °F 18.0 °F 19.9 °F 73% 30.08 in 7.0 mi NW 10.4 mph - N/A Snow Light Snow
4:35 PM 27.5 °F 17.4 °F 20.7 °F 75% 30.10 in 7.0 mi NW 11.5 mph - N/A Snow Light Snow
4:55 PM 27.5 °F 17.4 °F 20.3 °F 74% 30.12 in 10.0 mi NNW 11.5 mph - N/A   Overcast
5:15 PM 27.5 °F 19.3 °F 19.4 °F 72% 30.13 in 10.0 mi NNW 8.1 mph - N/A   Overcast
5:35 PM 27.3 °F 18.4 °F 19.6 °F 73% 30.14 in 10.0 mi NNW 9.2 mph - N/A   Overcast
5:55 PM 27.3 °F 18.4 °F 20.1 °F 74% 30.16 in 7.0 mi NW 9.2 mph - N/A Snow Light Snow
6:15 PM 27.1 °F 15.9 °F 20.1 °F 75% 30.18 in 10.0 mi NNW 13.8 mph - N/A   Overcast
6:35 PM 26.8 °F 16.5 °F 19.2 °F 73% 30.19 in 10.0 mi North 11.5 mph - N/A   Overcast
6:55 PM 26.6 °F 15.7 °F 18.7 °F 72% 30.21 in 10.0 mi North 12.7 mph - N/A   Overcast
7:15 PM 26.6 °F 16.8 °F 18.5 °F 71% 30.23 in 10.0 mi North 10.4 mph - N/A   Overcast
7:35 PM 26.4 °F 17.3 °F 18.5 °F 72% 30.24 in 10.0 mi North 9.2 mph - N/A   Overcast
7:55 PM 26.4 °F 20.9 °F 18.5 °F 72% 30.25 in 10.0 mi NNW 4.6 mph - N/A   Overcast
8:15 PM 26.4 °F 19.8 °F 19.2 °F 74% 30.26 in 10.0 mi NW 5.8 mph - N/A Snow Light Snow
8:35 PM 26.4 °F 19.8 °F 19.2 °F 74% 30.27 in 10.0 mi NNW 5.8 mph - N/A Snow Light Snow
8:55 PM 26.2 °F 20.7 °F 19.2 °F 75% 30.28 in 7.0 mi NNW 4.6 mph - N/A Snow Light Snow
9:15 PM 26.1 °F 20.5 °F 19.4 °F 76% 30.28 in 7.0 mi NW 4.6 mph - N/A Snow Light Snow
9:35 PM 25.7 °F 20.1 °F 19.6 °F 78% 30.28 in 4.0 mi NNW 4.6 mph - N/A Snow Light Snow
9:55 PM 25.7 °F 20.1 °F 19.9 °F 79% 30.29 in 5.0 mi NW 4.6 mph - N/A Snow Light Snow
10:15 PM 25.5 °F 19.9 °F 20.1 °F 80% 30.30 in 5.0 mi WNW 4.6 mph - N/A Snow Light Snow
10:35 PM 25.5 °F 16.9 °F 20.3 °F 81% 30.31 in 7.0 mi NW 8.1 mph - N/A Snow Light Snow
10:55 PM 25.5 °F 17.8 °F 20.1 °F 80% 30.31 in 5.0 mi NW 6.9 mph - N/A Snow Light Snow
11:15 PM 25.2 °F 15.7 °F 19.4 °F 79% 30.32 in 5.0 mi NNW 9.2 mph - N/A Snow Light Snow
11:35 PM 24.6 °F 14.4 °F 18.0 °F 76% 30.32 in 10.0 mi NNW 10.4 mph - N/A Snow Light Snow
11:55 PM 24.1 °F 15.2 °F 16.9 °F 74% 30.32 in 10.0 mi NNW 8.1 mph - N/A Snow Light Snow